When you browse on this site, cookies collect data to enhance your experience and personalize the content and advertising you see.
Visit our Privacy Policy to learn more. By continuing to use the site, you agree to this use of cookies and data.
  • In France
  • List of Countries
  • For 7 days
  • Water Temperature
  • Satellite Maps
  • Weather Map
  • Weather Widgets
  • user-avatar
    Login

    Hourly Weather Bregenz

    Today, 12 December, Wednesday

    Time Temperature Precipitation Wind Pressure Humidity
    00:00 -12°C° 0 mm 2 mps 645 mmHg 84%
    01:00 -12°C° 0 mm 2 mps 645 mmHg 83%
    02:00 -12°C° 0 mm 2 mps 645 mmHg 82%
    03:00 -13°C° 0 mm 2 mps 645 mmHg 82%
    04:00 -13°C° 0 mm 2 mps 645 mmHg 81%
    05:00 -13°C° 0 mm 2 mps 645 mmHg 80%
    06:00 -13°C° 0 mm 2 mps 645 mmHg 80%
    07:00 -13°C° 0 mm 2 mps 645 mmHg 79%
    08:00 -12°C° 0 mm 2 mps 645 mmHg 77%
    09:00 -9°C° 0 mm 1 mps 645 mmHg 76%
    10:00 -7°C° 0 mm 1 mps 645 mmHg 75%
    11:00 -6°C° 0 mm 1 mps 645 mmHg 72%
    12:00 -4°C° 0 mm 1 mps 645 mmHg 69%
    13:00 -2°C° 0 mm 1 mps 645 mmHg 66%
    14:00 -3°C° 0 mm 1 mps 645 mmHg 71%
    15:00 -4°C° 0 mm 1 mps 644 mmHg 75%
    16:00 -7°C° 0 mm 2 mps 644 mmHg 80%
    17:00 -8°C° 0 mm 2 mps 644 mmHg 79%
    18:00 -9°C° 0 mm 2 mps 644 mmHg 79%
    19:00 -10°C° 0 mm 2 mps 643 mmHg 78%
    20:00 -12°C° 0 mm 2 mps 643 mmHg 76%
    21:00 -12°C° 0 mm 2 mps 643 mmHg 74%
    22:00 -12°C° 0 mm 2 mps 643 mmHg 73%
    23:00 -12°C° 0 mm 2 mps 643 mmHg 72%

    Tomorrow, 13 December, Thursday

    Time Temperature Precipitation Wind Pressure Humidity
    00:00 -13°C° 0 mm 2 mps 642 mmHg 71%
    01:00 -13°C° 0 mm 2 mps 642 mmHg 70%
    02:00 -13°C° 0 mm 2 mps 642 mmHg 70%
    03:00 -13°C° 0 mm 2 mps 641 mmHg 70%
    04:00 -13°C° 0 mm 2 mps 641 mmHg 70%
    05:00 -13°C° 0 mm 2 mps 641 mmHg 70%
    06:00 -13°C° 0 mm 2 mps 640 mmHg 70%
    07:00 -13°C° 0 mm 2 mps 640 mmHg 70%
    08:00 -12°C° 0 mm 2 mps 640 mmHg 70%
    09:00 -10°C° 0 mm 2 mps 640 mmHg 70%
    10:00 -9°C° 0 mm 2 mps 640 mmHg 69%
    11:00 -8°C° 0 mm 2 mps 640 mmHg 68%
    12:00 -6°C° 0 mm 2 mps 640 mmHg 66%
    13:00 -5°C° 0 mm 2 mps 640 mmHg 65%
    14:00 -6°C° 0 mm 2 mps 640 mmHg 69%
    15:00 -7°C° 0 mm 2 mps 639 mmHg 73%
    16:00 -8°C° 0 mm 2 mps 639 mmHg 76%
    17:00 -9°C° 0 mm 2 mps 639 mmHg 78%
    18:00 -9°C° 0 mm 2 mps 639 mmHg 79%
    19:00 -10°C° 0 mm 2 mps 639 mmHg 80%
    20:00 -10°C° 0 mm 2 mps 639 mmHg 80%
    21:00 -10°C° 0 mm 2 mps 639 mmHg 80%
    22:00 -10°C° 0 mm 2 mps 639 mmHg 79%
    23:00 -10°C° 0 mm 2 mps 639 mmHg 79%

    Day after tomorrow, 14 December, Friday

    Time Temperature Precipitation Wind Pressure Humidity
    00:00 -10°C° 0 mm 2 mps 640 mmHg 80%
    01:00 -10°C° 0 mm 2 mps 640 mmHg 80%
    02:00 -10°C° 0 mm 2 mps 640 mmHg 80%
    03:00 -10°C° 0 mm 2 mps 639 mmHg 81%
    04:00 -9°C° 0 mm 1 mps 639 mmHg 81%
    05:00 -9°C° 0 mm 1 mps 640 mmHg 81%
    06:00 -9°C° 0 mm 1 mps 640 mmHg 82%
    07:00 -9°C° 0 mm 1 mps 640 mmHg 82%
    08:00 -8°C° 0 mm 1 mps 640 mmHg 81%
    09:00 -7°C° 0 mm 1 mps 641 mmHg 80%
    10:00 -6°C° 0 mm 1 mps 641 mmHg 78%
    11:00 -4°C° 0 mm 1 mps 642 mmHg 76%
    12:00 -2°C° 0 mm 1 mps 642 mmHg 74%
    13:00 -1°C° 0 mm 1 mps 642 mmHg 72%
    14:00 -2°C° 0 mm 1 mps 642 mmHg 77%
    15:00 -4°C° 0 mm 0 mps 642 mmHg 81%
    16:00 -5°C° 0 mm 0 mps 642 mmHg 85%
    17:00 -6°C° 0 mm 0 mps 642 mmHg 87%
    18:00 -7°C° 0 mm 0 mps 643 mmHg 88%
    19:00 -7°C° 0 mm 0 mps 643 mmHg 89%
    20:00 -8°C° 0 mm 1 mps 643 mmHg 89%
    21:00 -8°C° 0 mm 1 mps 643 mmHg 88%
    22:00 -8°C° 0 mm 1 mps 643 mmHg 88%
    23:00 -8°C° 0 mm 1 mps 644 mmHg 88%

    15 December, Saturday

    Time Temperature Precipitation Wind Pressure Humidity
    00:00 -9°C° 0 mm 1 mps 644 mmHg 88%
    01:00 -9°C° 0 mm 1 mps 644 mmHg 88%
    02:00 -9°C° 0 mm 1 mps 644 mmHg 88%
    03:00 -9°C° 0 mm 1 mps 644 mmHg 88%
    04:00 -9°C° 0 mm 1 mps 644 mmHg 88%
    05:00 -10°C° 0 mm 1 mps 644 mmHg 88%
    06:00 -10°C° 0 mm 1 mps 644 mmHg 87%
    07:00 -10°C° 0 mm 1 mps 645 mmHg 86%
    08:00 -9°C° 0 mm 1 mps 645 mmHg 84%
    09:00 -8°C° 0 mm 1 mps 646 mmHg 81%
    10:00 -7°C° 0 mm 1 mps 646 mmHg 78%
    11:00 -6°C° 0 mm 1 mps 646 mmHg 73%
    12:00 -3°C° 0 mm 1 mps 646 mmHg 68%
    13:00 -3°C° 0 mm 0 mps 646 mmHg 63%
    14:00 -4°C° 0 mm 0 mps 646 mmHg 67%
    15:00 -5°C° 0 mm 0 mps 646 mmHg 70%
    16:00 -6°C° 0 mm 1 mps 645 mmHg 74%
    17:00 -7°C° 0 mm 1 mps 645 mmHg 71%
    18:00 -8°C° 0 mm 1 mps 645 mmHg 69%
    19:00 -10°C° 0 mm 2 mps 645 mmHg 66%
    20:00 -9°C° 0 mm 2 mps 645 mmHg 64%
    21:00 -9°C° 0 mm 2 mps 646 mmHg 61%
    22:00 -9°C° 0 mm 2 mps 646 mmHg 59%
    23:00 -8°C° 0 mm 2 mps 646 mmHg 57%

    16 December, Sunday

    Time Temperature Precipitation Wind Pressure Humidity
    00:00 -8°C° 0 mm 2 mps 645 mmHg 56%
    01:00 -7°C° 0 mm 2 mps 645 mmHg 55%
    02:00 -6°C° 0.1 mm 2 mps 645 mmHg 58%
    03:00 -5°C° 0.1 mm 2 mps 645 mmHg 62%
    04:00 -2°C° 0.1 mm 1 mps 645 mmHg 66%
    05:00 -4°C° 0.6 mm 2 mps 645 mmHg 73%
    06:00 -3°C° 0.6 mm 2 mps 645 mmHg 79%
    07:00 -3°C° 0.6 mm 2 mps 645 mmHg 85%
    08:00 -2°C° 0.3 mm 2 mps 645 mmHg 86%
    09:00 -1°C° 0.3 mm 2 mps 645 mmHg 88%
    10:00 +1°C° 0.3 mm 2 mps 645 mmHg 89%
    11:00 +2°C° 0.1 mm 2 mps 645 mmHg 91%
    12:00 +2°C° 0.1 mm 2 mps 645 mmHg 92%
    13:00 +3°C° 0.1 mm 2 mps 645 mmHg 94%
    14:00 +3°C° 0.4 mm 2 mps 645 mmHg 94%
    15:00 +2°C° 0.4 mm 2 mps 645 mmHg 93%
    16:00 +2°C° 0.4 mm 2 mps 645 mmHg 92%
    17:00 +2°C° 1 mm 2 mps 645 mmHg 93%
    18:00 +2°C° 1 mm 2 mps 645 mmHg 93%
    19:00 +2°C° 1 mm 2 mps 645 mmHg 93%
    20:00 +1°C° 0.5 mm 2 mps 645 mmHg 93%
    21:00 +1°C° 0.5 mm 2 mps 645 mmHg 92%
    22:00 +1°C° 0.5 mm 2 mps 645 mmHg 91%
    23:00 +1°C° 0.4 mm 2 mps 645 mmHg 91%

    17 December, Monday

    Time Temperature Precipitation Wind Pressure Humidity
    00:00 +1°C° 0.4 mm 2 mps 645 mmHg 90%
    01:00 +2°C° 0.4 mm 1 mps 645 mmHg 89%
    02:00 +1°C° 1.1 mm 1 mps 644 mmHg 90%
    03:00 +1°C° 1.1 mm 1 mps 644 mmHg 91%
    04:00 +1°C° 1.1 mm 1 mps 644 mmHg 91%
    05:00 +1°C° 1.4 mm 1 mps 644 mmHg 92%
    06:00 +1°C° 1.4 mm 1 mps 644 mmHg 93%
    07:00 +1°C° 1.4 mm 1 mps 644 mmHg 94%
    08:00 +1°C° 0.9 mm 1 mps 644 mmHg 93%
    09:00 +1°C° 0.9 mm 1 mps 644 mmHg 93%
    10:00 +1°C° 0.9 mm 1 mps 644 mmHg 93%
    11:00 +2°C° 0.3 mm 1 mps 644 mmHg 93%
    12:00 +2°C° 0.3 mm 1 mps 644 mmHg 93%
    13:00 +3°C° 0.3 mm 1 mps 643 mmHg 93%
    14:00 +3°C° 0.6 mm 1 mps 643 mmHg 93%
    15:00 +1°C° 0.6 mm 2 mps 643 mmHg 93%
    16:00 +1°C° 0.6 mm 2 mps 643 mmHg 93%
    17:00 +1°C° 1.9 mm 2 mps 643 mmHg 94%
    18:00 +1°C° 1.9 mm 2 mps 643 mmHg 95%
    19:00 +1°C° 1.9 mm 2 mps 643 mmHg 97%
    20:00 -1°C° 1.7 mm 3 mps 644 mmHg 96%
    21:00 -1°C° 1.7 mm 3 mps 644 mmHg 96%
    22:00 -2°C° 1.7 mm 4 mps 645 mmHg 95%
    23:00 -2°C° 0.6 mm 4 mps 645 mmHg 95%
    Show more